Weather History for Renton, WA

Change the Weather History Date:

Wednesday, March 19, 2014

  Actual Average Record
Temperature  
Mean Temperature 46 °F -  
Max Temperature 53 °F 52 °F 64 °F (1998)
Min Temperature 39 °F 39 °F 30 °F (2012)
Degree Days  
Heating Degree Days 20    
Moisture  
Dew Point 42 °F    
Average Humidity 84    
Maximum Humidity 93    
Minimum Humidity 63    
Precipitation  
Precipitation 0.01 in - - ()
Sea Level Pressure  
Sea Level Pressure 30.11 in    
Wind  
Wind Speed 6 mph (SE)    
Max Wind Speed 15 mph    
Max Gust Speed 29 mph    
Visibility 10 miles    
Events Rain    
Averages and records for this station are not official NWS values.
T = Trace of Precipitation, MM = Missing Value Source: NWS Daily Summary

Daily Weather History Graph

Daily Weather History Graph

Search for Another Location

Airport:

Trip Planner

Search our weather history database for the weather conditions in past years. The results will help you decide how hot, cold, wet, or windy it might be!

Date:

Astronomy

Mar. 19, 2014 Rise Set
Actual Time 7:13 AM PDT 7:20 PM PDT
Civil Twilight 6:42 AM PDT 7:51 PM PDT
Nautical Twilight 6:07 AM PDT 8:27 PM PDT
Astronomical Twilight 5:30 AM PDT 9:04 PM PDT
Moon 10:59 PM PDT (3/19) 8:29 AM PDT (3/19)
Length of Visible Light 13h 08m
Length of Day
12h 06m
Waning Gibbous, 90% of the Moon is Illuminated
Mar 19
Waning Gibbous
Mar 23
Last Quarter
Mar 30
New
Apr 7
First Quarter
Apr 15
Full

Hourly Weather History & Observations

Time (PDT) Temp. Windchill Dew Point Humidity Pressure Visibility Wind Dir Wind Speed Gust Speed Precip Events Conditions
12:18 AM 46.0 °F 44.8 °F 44.1 °F 93% 30.17 in 10.0 mi ESE 3.5 mph - N/A   Mostly Cloudy
12:37 AM 46.9 °F - 44.1 °F 90% 30.17 in 10.0 mi Calm Calm - N/A   Mostly Cloudy
12:53 AM 46.9 °F - 44.1 °F 90% 30.18 in 10.0 mi East 3.5 mph - N/A   Overcast
1:21 AM 46.9 °F - 44.1 °F 90% 30.15 in 10.0 mi ESE 3.5 mph - N/A   Overcast
1:28 AM 46.9 °F - 44.1 °F 90% 30.15 in 10.0 mi East 4.6 mph - N/A   Overcast
1:45 AM 46.0 °F 44.8 °F 44.1 °F 93% 30.14 in 10.0 mi ESE 3.5 mph - N/A   Overcast
1:53 AM 46.9 °F - 44.1 °F 90% 30.16 in 10.0 mi ESE 3.5 mph - N/A   Overcast
2:53 AM 46.0 °F 43.9 °F 44.1 °F 93% 30.14 in 10.0 mi ESE 4.6 mph - N/A   Overcast
3:22 AM 46.0 °F 43.9 °F 44.1 °F 93% 30.12 in 10.0 mi ESE 4.6 mph - N/A   Overcast
3:53 AM 46.9 °F - 44.1 °F 90% 30.12 in 10.0 mi SE 3.5 mph - N/A   Overcast
4:53 AM 46.9 °F - 44.1 °F 90% 30.11 in 10.0 mi SSE 8.1 mph - N/A   Overcast
5:48 AM 46.4 °F 42.4 °F 42.8 °F 87% 30.08 in 10.0 mi SSE 8.1 mph - N/A   Overcast
5:53 AM 46.9 °F - 43.0 °F 86% 30.09 in 10.0 mi SSE 10.4 mph - N/A   Overcast
6:39 AM 46.0 °F 42.5 °F 44.1 °F 93% 30.07 in 10.0 mi SSE 6.9 mph - 0.00 in   Overcast
6:53 AM 46.0 °F 42.5 °F 44.1 °F 93% 30.09 in 10.0 mi South 6.9 mph - 0.00 in Rain Light Rain
7:53 AM 46.0 °F 41.0 °F 43.0 °F 89% 30.08 in 10.0 mi SSE 10.4 mph - 0.00 in Rain Light Rain
8:24 AM 46.0 °F 42.5 °F 43.0 °F 89% 30.05 in 10.0 mi ESE 6.9 mph - 0.01 in Rain Light Rain
8:53 AM 46.9 °F - 43.0 °F 86% 30.07 in 10.0 mi SE 8.1 mph - 0.01 in   Overcast
9:18 AM 46.9 °F - 43.0 °F 86% 30.05 in 10.0 mi SE 8.1 mph - N/A   Overcast
9:53 AM 46.9 °F - 43.0 °F 86% 30.06 in 10.0 mi SSE 11.5 mph - N/A   Overcast
10:53 AM 48.0 °F - 43.0 °F 83% 30.06 in 10.0 mi South 11.5 mph 21.9 mph N/A   Overcast
11:53 AM 48.9 °F - 43.0 °F 80% 30.06 in 10.0 mi South 15.0 mph - 0.00 in Rain Light Rain
12:53 PM 48.9 °F - 45.0 °F 86% 30.06 in 10.0 mi South 13.8 mph 26.5 mph 0.00 in Rain Light Rain
1:06 PM 48.9 °F - 45.0 °F 86% 30.04 in 10.0 mi South 11.5 mph 26.5 mph 0.00 in Rain Light Rain
1:53 PM 50.0 °F - 42.1 °F 74% 30.04 in 10.0 mi South 15.0 mph 21.9 mph 0.00 in   Overcast
2:53 PM 52.0 °F - 39.9 °F 63% 30.04 in 10.0 mi South 12.7 mph 28.8 mph N/A   Partly Cloudy
3:53 PM 50.0 °F - 39.9 °F 68% 30.07 in 10.0 mi NW 10.4 mph 21.9 mph N/A   Scattered Clouds
4:53 PM 48.0 °F - 37.9 °F 68% 30.09 in 10.0 mi North 10.4 mph - N/A   Overcast
5:53 PM 46.0 °F 41.9 °F 37.0 °F 71% 30.11 in 10.0 mi NE 8.1 mph - N/A   Overcast
6:53 PM 44.1 °F 39.5 °F 37.0 °F 76% 30.12 in 10.0 mi NNW 8.1 mph - N/A   Overcast
7:53 PM 43.0 °F 40.3 °F 36.0 °F 76% 30.15 in 10.0 mi North 4.6 mph - N/A   Overcast
8:53 PM 43.0 °F - 36.0 °F 76% 30.17 in 10.0 mi Calm Calm - N/A   Overcast
9:53 PM 41.0 °F - 36.0 °F 82% 30.19 in 10.0 mi Calm Calm - N/A   Clear
10:53 PM 39.9 °F - 35.1 °F 83% 30.22 in 10.0 mi Calm Calm - N/A   Clear
11:53 PM 39.9 °F 37.8 °F 34.0 °F 79% 30.23 in 10.0 mi SE 3.5 mph - N/A   Clear